Theta_e
302 302 303 303 304 304 305 305 305 306 306 306 308 306 302 299 300 301 297 299 302 304 304 304 304 303 305 306 309 313 311 309 311 310 310 311 308 308 307 308 308 309 309 309 307
301 301 302 302 303 303 303 304 304 304 305 305 306 308 304 298 297 296 295 298 300 300 302 305 304 304 306 306 306 309 307 308 309 310 307 305 305 305 306 307 308 308 307 305 305
300 301 301 301 302 304 306 306 305 305 304 305 304 307 308 306 300 294 294 295 298 300 301 304 302 304 306 306 306 306 308 307 305 305 304 304 305 304 304 305 303 303 303 303 303
299 299 300 301 304 307 309 309 308 307 304 304 304 308 309 304 302 291 291 293 296 300 301 304 304 304 306 307 303 305 304 303 303 303 302 302 302 303 302 299 298 299 299 299 301
298 298 299 302 306 308 307 307 304 303 304 304 304 303 299 293 291 289 290 294 296 299 300 304 304 303 304 304 303 304 302 303 302 300 299 298 301 302 298 296 296 296 297 297 298
297 298 299 304 306 306 306 305 305 304 304 304 301 295 294 294 289 289 291 294 295 297 300 301 302 304 304 303 304 300 302 301 300 297 296 294 298 301 299 295 295 295 296 297 297
298 297 300 304 303 303 306 306 306 302 306 298 293 292 292 290 289 289 292 293 295 296 299 296 298 302 300 301 296 299 301 300 297 294 293 293 301 295 296 295 296 295 294 295 294
297 297 299 300 301 299 303 306 302 298 296 296 294 292 291 289 289 289 292 292 292 295 294 292 293 293 293 293 296 295 299 298 295 291 291 293 297 294 296 296 296 295 294 294 293
297 296 298 298 299 296 295 296 294 293 295 293 292 293 291 289 289 288 289 291 292 291 290 291 291 291 293 298 297 294 296 293 292 290 290 291 293 295 295 295 295 295 295 294 293
297 295 296 299 297 296 296 293 293 294 293 292 290 295 289 289 288 288 289 289 292 292 292 291 291 293 291 295 295 292 291 290 290 289 290 292 293 295 294 294 294 294 294 294 293
296 294 294 296 299 297 298 297 295 295 289 289 289 289 288 288 287 288 288 289 291 291 292 289 291 290 290 288 288 288 289 289 290 289 289 291 293 294 294 293 293 293 293 293 293
296 294 291 294 297 298 297 294 291 290 289 288 288 288 287 287 289 288 289 290 291 290 290 290 288 287 288 288 288 288 289 290 290 289 290 291 292 294 294 293 292 292 292 292 291
296 293 290 293 296 297 292 290 288 288 293 289 288 288 288 288 287 287 288 288 289 289 290 290 287 287 287 288 289 289 288 288 288 289 291 291 293 295 295 294 293 292 292 291 290
296 291 290 291 295 293 291 289 291 289 305 291 289 288 288 288 287 287 286 288 287 287 287 287 286 287 287 287 288 290 287 288 289 291 295 292 296 294 295 294 293 292 291 291 290
293 290 290 291 292 293 291 293 294 292 308 289 288 287 288 288 287 287 286 288 287 287 288 286 286 286 287 286 287 289 288 289 290 291 292 293 293 295 294 294 292 291 291 290 290
293 288 288 290 292 291 293 294 293 312 303 288 287 288 288 287 287 287 287 287 286 288 288 287 286 286 286 287 286 287 289 290 291 292 296 292 290 295 295 293 291 290 290 290 289
291 288 287 287 290 293 294 292 310 306 286 289 289 288 287 287 287 287 287 287 289 292 290 287 287 286 286 287 287 288 289 297 298 299 298 290 290 295 294 292 290 289 289 289 289
290 290 286 286 291 294 291 300 300 286 287 285 287 287 288 286 286 286 286 288 286 286 288 291 294 286 286 286 287 287 288 295 297 294 292 289 291 297 293 291 289 289 289 289 289
290 288 286 287 293 291 295 303 300 289 286 288 286 287 286 285 286 286 286 287 287 285 291 290 288 285 286 286 287 286 289 286 289 286 287 292 292 292 292 291 290 290 289 289 288
289 286 286 287 292 288 300 295 287 286 287 286 292 286 290 286 287 287 286 285 287 286 283 284 291 285 286 285 286 286 287 287 287 292 294 291 290 293 293 293 289 289 289 288 288
287 291 285 286 287 293 300 289 284 287 287 288 287 286 287 287 286 287 287 284 285 286 284 284 286 287 285 286 286 285 286 286 286 287 290 290 294 293 292 291 289 288 289 288 288
286 298 284 284 295 280 288 284 287 287 287 287 286 286 288 285 286 286 288 286 285 286 286 285 286 288 287 284 283 285 286 287 289 288 286 287 289 288 289 289 288 288 288 288 288
291 290 284 285 299 288 283 286 287 287 286 287 287 287 286 286 288 285 285 285 285 286 286 286 287 292 287 284 283 284 285 285 284 284 286 289 292 287 287 288 288 287 287 288 287
289 297 289 284 282 287 286 286 287 286 286 286 286 286 285 285 285 284 285 286 285 286 286 286 284 288 296 290 285 285 285 285 286 287 287 286 290 290 289 289 288 287 286 286 287
284 284 279 293 287 283 285 286 286 286 285 286 285 285 285 283 285 286 285 285 286 286 288 287 287 282 284 285 285 285 285 285 286 286 286 290 289 291 290 289 287 287 286 286 287
289 287 278 278 279 284 284 286 287 286 286 286 285 286 283 284 288 286 286 286 287 284 287 282 286 278 281 284 284 284 285 285 285 286 286 287 287 288 288 287 286 287 286 286 287
281 280 287 281 282 286 289 286 286 286 285 285 286 286 285 285 285 284 286 286 286 286 286 284 285 283 287 281 282 285 283 285 285 284 285 286 288 288 287 287 287 286 286 286 286
Wind_Speed
15 14 14 13 13 12 10 8 7 5 3 1 3 12 15 19 17 12 16 17 16 20 12 9 3 3 3 3 3 1 4 9 7 7 3 8 9 8 11 11 12 8 16 23 25
18 18 17 15 14 12 11 9 8 5 3 2 3 11 11 8 14 23 15 21 14 13 9 7 4 3 3 3 2 4 4 4 2 6 7 10 9 11 8 15 14 18 24 32 32
16 17 17 16 16 14 13 9 6 5 5 5 5 8 12 6 4 5 23 15 10 9 5 4 3 1 3 3 2 3 4 1 4 8 13 12 10 12 11 9 20 21 22 24 25
17 17 16 15 14 13 13 10 5 3 8 6 7 9 10 4 2 8 27 18 8 6 2 1 2 3 4 5 2 4 1 4 6 12 12 12 12 12 14 11 19 20 23 26 23
20 19 18 15 16 14 10 5 4 3 9 9 13 16 8 8 6 22 24 12 6 4 5 2 2 2 4 4 2 2 3 6 10 10 11 12 13 4 11 22 22 24 24 22 23
20 20 18 14 17 17 15 15 18 11 15 16 14 9 4 6 11 22 15 11 11 8 8 7 4 3 5 3 1 2 4 6 7 15 10 17 12 1 16 24 20 22 22 21 23
20 21 14 16 12 14 14 14 13 16 15 18 16 17 25 6 11 21 10 14 9 6 5 7 3 2 0 5 6 2 2 2 13 19 9 20 9 14 24 18 18 17 19 20 25
20 19 9 13 13 16 12 9 12 13 13 6 6 9 6 5 11 22 10 11 16 15 13 8 10 10 4 4 3 3 3 2 10 15 8 15 2 22 22 20 22 21 17 17 20
18 18 8 4 6 10 12 6 9 12 7 2 4 5 5 4 15 19 14 7 6 11 14 10 8 6 5 2 4 9 2 6 6 11 14 10 6 14 15 17 19 19 19 17 18
18 17 10 1 3 4 7 10 12 2 6 6 9 3 8 8 10 17 9 12 7 2 4 10 6 7 13 4 3 3 3 3 6 8 13 7 6 9 14 16 17 18 20 20 20
18 17 10 1 4 2 4 0 2 5 19 8 4 6 3 11 6 21 13 7 7 9 6 10 12 12 11 10 5 1 2 7 4 1 12 4 1 1 9 14 17 17 18 21 22
17 17 7 3 2 3 6 5 2 9 12 10 6 5 3 6 5 26 19 5 7 6 3 7 11 6 3 7 3 1 3 7 5 3 7 4 6 4 1 8 11 14 16 18 22
16 16 9 3 3 3 9 8 12 7 5 5 4 5 4 8 8 13 13 4 10 19 17 11 4 4 4 8 7 3 6 7 5 11 1 10 3 8 4 2 12 15 14 14 16
14 15 9 2 3 6 4 13 6 2 3 7 6 6 5 1 5 8 9 3 5 5 6 8 3 5 5 5 8 3 7 10 8 6 2 6 3 8 5 5 11 15 15 15 18
10 13 8 2 10 3 9 9 3 1 3 4 3 4 5 5 2 12 10 5 7 5 3 2 2 5 4 4 6 3 14 7 3 3 3 1 3 4 3 5 11 14 14 15 15
8 10 2 4 5 8 12 7 1 1 4 1 3 5 2 7 4 6 5 8 2 6 11 5 1 1 4 8 5 12 2 3 3 2 3 4 4 4 3 2 6 11 13 15 15
5 3 9 3 4 10 10 1 2 3 3 1 2 3 5 7 5 7 5 7 3 3 1 1 1 1 3 3 3 9 1 1 2 2 3 5 6 7 7 6 3 8 11 13 13
1 2 9 7 8 12 3 2 3 1 4 1 3 5 3 5 4 4 3 3 5 1 3 1 3 2 3 3 2 6 4 3 4 3 4 3 6 3 8 6 2 4 6 9 12
3 4 5 5 11 6 1 1 1 3 6 10 4 2 1 1 1 2 3 2 1 2 1 2 3 1 0 2 2 2 3 2 2 2 3 4 5 10 9 9 5 4 8 9 11
5 4 6 4 8 2 2 2 2 1 5 2 3 2 4 3 4 3 3 3 4 1 2 4 1 2 3 2 4 2 6 1 2 2 5 4 8 9 11 12 7 5 6 7 8
3 2 8 8 5 4 1 3 3 2 1 2 4 4 2 4 2 3 5 3 3 4 4 3 1 3 1 6 6 4 3 2 1 2 3 5 6 5 10 10 8 5 5 6 7
2 1 7 7 2 1 2 4 3 4 2 2 3 4 4 5 3 4 4 2 7 7 3 2 1 3 1 3 2 0 3 5 3 4 4 3 10 3 8 8 9 7 9 7 8
2 1 5 2 2 2 1 2 1 4 3 3 3 1 2 5 1 3 4 2 9 8 6 6 2 3 2 2 1 5 8 7 2 1 10 4 7 1 8 10 12 12 15 12 12
2 1 2 4 2 5 6 4 4 2 3 3 4 3 3 2 1 5 5 5 10 6 6 5 3 6 5 2 3 4 7 15 9 5 6 16 22 25 14 13 16 17 16 16 12
4 1 0 1 3 3 1 5 5 6 1 4 2 4 5 4 3 4 5 4 7 8 7 4 5 5 13 15 14 13 14 15 22 22 10 20 17 23 14 14 21 19 17 15 13
2 3 1 2 1 0 2 5 7 4 6 4 3 8 8 5 5 8 8 5 5 4 8 3 2 1 5 10 12 15 19 21 25 25 28 34 32 34 27 20 16 14 14 14 13
2 3 1 1 1 1 2 5 7 7 4 1 6 6 9 11 7 2 7 3 6 9 11 7 4 0 5 3 9 9 16 21 13 11 19 21 26 20 17 15 14 12 13 15 15
Wind_Direction
12 7 1 358 355 347 341 332 325 326 320 168 140 146 108 72 68 79 44 346 331 331 344 337 352 32 81 85 63 263 205 254 269 295 18 25 353 12 333 300 325 310 305 320 332
9 5 360 354 349 340 327 312 300 285 267 210 174 163 146 124 63 59 359 344 345 351 356 359 5 17 102 105 127 198 217 239 338 330 338 336 356 334 334 319 321 328 330 329 332
10 4 359 353 347 346 339 323 303 265 214 191 177 168 178 164 86 7 346 348 345 353 329 299 305 343 121 157 135 156 245 2 69 11 340 328 340 337 336 341 353 352 351 351 351
11 8 5 359 0 6 348 335 323 246 196 176 149 153 149 137 190 337 338 340 337 345 323 272 212 167 148 160 86 205 97 28 353 356 358 344 326 336 39 17 343 341 341 341 341
11 9 9 16 24 14 6 34 20 103 148 149 140 130 136 59 13 332 337 346 1 49 52 68 95 117 147 123 128 245 20 347 360 22 30 344 329 325 59 358 349 354 0 356 351
11 9 11 33 37 39 53 81 71 82 124 131 132 126 82 76 345 350 348 6 12 32 47 45 71 81 94 89 27 328 308 21 40 7 48 354 319 203 4 348 355 12 7 6 9
8 8 28 45 46 53 65 75 61 80 124 121 113 89 66 68 354 2 38 39 26 59 71 31 58 71 24 124 356 345 260 160 31 358 27 333 135 26 350 1 22 24 8 4 3
7 7 43 65 61 55 80 87 74 92 111 128 70 78 83 1 8 21 54 57 59 80 89 53 65 85 33 325 73 51 125 6 35 19 4 346 64 10 12 19 23 24 23 12 3
8 8 24 65 91 87 72 87 79 80 112 112 31 99 83 13 8 2 18 1 20 62 59 54 60 53 33 131 119 34 20 360 337 30 349 15 27 11 18 28 21 15 16 14 8
10 9 15 34 129 112 84 79 72 87 32 49 43 95 34 342 332 349 6 23 26 337 42 33 52 63 31 5 65 18 7 320 306 356 1 39 68 33 20 28 30 14 4 4 7
9 7 11 20 215 216 358 185 181 38 38 56 29 82 12 334 35 7 349 343 24 49 67 30 69 56 40 43 67 54 316 320 343 108 334 17 96 81 30 27 19 15 6 357 358
4 4 356 5 201 237 345 64 78 136 92 43 51 69 29 345 11 9 12 69 34 78 61 96 66 41 52 23 358 67 340 15 294 314 329 332 300 188 139 44 29 15 9 2 350
0 1 10 41 145 86 78 108 120 116 79 41 44 34 347 17 44 359 9 48 57 59 60 81 71 351 26 27 22 51 19 347 311 315 300 306 211 218 211 297 8 15 10 3 359
359 4 10 99 112 115 77 131 123 82 102 5 355 28 357 355 66 18 11 33 56 86 66 67 35 32 32 44 1 19 2 323 314 322 4 350 302 227 247 312 356 2 5 360 354
357 6 31 77 130 105 148 138 123 296 195 21 22 332 12 65 327 25 15 54 76 67 237 98 67 35 36 347 340 328 331 305 297 253 296 48 273 158 232 270 350 356 356 355 354
352 14 67 68 70 132 144 139 189 50 235 142 325 355 50 31 49 339 43 51 61 62 57 94 98 320 350 308 275 317 323 154 177 217 242 131 3 238 219 224 334 347 353 354 353
350 38 44 79 112 147 144 169 101 202 9 169 56 44 76 24 46 24 46 42 34 133 73 94 104 41 346 300 261 352 214 220 244 253 308 155 292 279 183 175 336 336 338 347 351
87 164 34 60 139 148 148 92 203 39 203 204 121 81 74 2 43 34 104 100 57 15 112 199 224 181 11 32 353 11 359 26 293 292 309 268 231 309 180 182 277 301 310 338 352
136 135 44 43 144 149 214 145 268 177 146 152 109 119 116 149 90 100 45 115 100 5 94 189 171 148 111 95 289 43 60 38 96 64 282 256 265 259 199 222 242 301 342 337 341
147 121 31 114 144 74 77 135 123 122 125 160 168 252 162 178 173 185 173 160 139 93 271 148 203 181 131 171 83 6 142 168 86 299 280 248 279 265 214 229 247 296 309 320 325
127 124 6 136 112 50 170 123 185 203 182 161 145 126 131 158 186 175 155 169 212 136 88 142 262 132 250 199 180 155 174 116 41 247 276 299 264 220 230 206 225 277 287 299 306
79 136 7 153 72 38 106 161 188 145 108 110 100 107 152 161 148 182 198 236 169 159 143 148 106 239 166 113 326 271 203 194 221 193 237 278 269 248 226 219 226 264 299 297 294
83 90 9 172 172 113 161 115 122 149 163 142 120 107 157 163 168 188 191 162 169 172 166 174 190 295 185 141 58 225 200 206 135 155 220 214 258 171 214 231 239 265 306 296 299
106 149 41 57 30 131 146 151 134 98 130 120 120 101 127 136 161 175 203 182 189 199 166 161 193 239 251 54 96 200 202 207 198 217 232 230 271 278 265 266 277 292 293 296 288
20 98 27 30 42 90 69 146 143 170 74 157 134 201 162 139 150 217 191 181 188 208 190 194 247 215 266 271 257 254 246 217 217 221 233 266 264 272 285 295 293 295 288 285 278
110 149 99 105 326 196 332 197 164 164 154 204 201 185 181 173 198 188 168 196 196 171 178 166 254 105 271 273 263 261 257 239 239 244 250 259 271 268 281 283 275 284 284 277 274
94 109 157 354 114 216 208 172 193 153 200 158 173 148 206 239 215 189 187 198 185 169 181 167 203 291 266 2 305 263 243 222 216 221 228 246 249 275 274 276 280 292 288 280 273